Lapse_Rate
6.6 6.6 6.6 6.6 6.3 6.3 6.3 6.3 6.4 6.6 6.8 6.9 7.0 6.8 6.6 6.8 6.7 6.6 6.6 6.6 6.5 6.5 6.6 6.7 6.7 6.7 6.7 6.7 6.8 6.7 6.6 6.5 6.5 6.6 6.5 6.5 6.4 6.3 6.3 6.1 6.1 5.9 5.8
6.6 6.6 6.6 6.6 6.6 6.2 6.0 6.3 6.2 6.3 6.4 6.5 6.9 6.8 6.7 6.7 6.8 6.7 6.6 6.5 6.4 6.5 6.5 6.6 6.6 6.7 6.7 6.9 6.8 6.7 6.5 6.4 6.4 6.6 6.6 6.5 6.5 6.5 6.3 6.1 6.1 6.0 5.8
6.1 6.4 6.5 6.6 6.4 6.3 6.0 6.1 6.2 6.1 6.1 6.3 6.5 6.7 6.7 6.8 6.9 6.8 6.6 6.5 6.4 6.5 6.6 6.5 6.6 6.6 6.8 6.8 6.8 6.6 6.5 6.4 6.5 6.5 6.7 6.6 6.6 6.6 6.5 6.4 6.3 6.1 5.9
6.0 5.8 6.3 6.3 6.2 6.3 6.2 6.0 6.2 6.1 6.1 6.1 6.3 6.5 6.6 6.7 6.8 6.9 6.7 6.5 6.4 6.4 6.4 6.4 6.5 6.7 6.8 6.8 6.7 6.5 6.4 6.6 6.5 6.6 6.9 7.0 7.0 6.9 6.7 6.4 6.3 6.0 5.9
6.0 5.9 6.0 5.9 5.9 5.9 6.0 6.1 6.1 6.1 6.1 6.1 6.2 6.3 6.5 6.6 6.7 6.8 6.7 6.5 6.5 6.4 6.5 6.5 6.5 6.6 6.7 6.8 6.7 6.6 6.5 6.4 6.6 6.9 7.1 7.2 7.1 7.0 6.8 6.6 6.4 6.3 6.1
6.1 6.1 5.8 5.8 5.6 5.7 5.8 5.9 6.1 6.0 6.0 6.0 6.1 6.3 6.3 6.4 6.6 6.6 6.7 6.7 6.6 6.6 6.4 6.4 6.5 6.6 6.7 6.8 6.7 6.6 6.6 6.7 7.0 7.2 7.3 7.3 7.3 7.1 6.9 6.7 6.6 6.4 6.3
5.7 6.1 5.8 5.7 5.5 5.4 5.5 5.6 5.9 5.9 5.9 5.9 5.9 6.0 6.2 6.1 6.2 6.4 6.6 6.7 6.6 6.6 6.5 6.5 6.5 6.5 6.6 6.7 6.6 6.8 6.9 7.0 7.1 7.3 7.3 7.3 7.3 7.0 7.0 6.7 6.5 6.4 6.4
5.3 5.6 5.9 5.6 5.3 5.4 5.3 5.4 5.6 5.8 5.7 5.8 5.8 5.8 5.9 6.0 6.0 6.2 6.4 6.5 6.5 6.5 6.5 6.6 6.5 6.5 6.6 6.6 6.7 6.9 7.0 7.1 7.2 7.3 7.3 7.4 7.3 7.0 6.8 6.7 6.4 6.4 6.3
5.2 5.4 5.7 5.6 5.4 5.2 5.2 5.2 5.4 5.5 5.7 5.6 5.7 5.7 5.8 5.8 5.9 6.0 6.2 6.4 6.5 6.5 6.5 6.6 6.6 6.5 6.6 6.6 6.7 6.8 7.0 7.2 7.2 7.2 7.4 7.3 7.3 7.0 6.7 6.6 6.5 6.4 6.3
4.9 5.4 5.3 5.3 5.3 5.3 5.0 5.1 5.1 5.4 5.5 5.5 5.5 5.7 5.7 5.8 5.9 5.9 6.2 6.3 6.3 6.3 6.4 6.5 6.6 6.6 6.6 6.7 6.7 7.0 7.1 7.1 7.2 7.2 7.3 7.3 7.2 7.0 6.6 6.6 6.6 6.4 6.3
5.2 5.1 5.2 5.2 5.1 5.4 5.4 5.2 5.2 5.3 5.5 5.5 5.4 5.4 5.6 5.7 5.9 5.9 6.0 6.2 6.2 6.3 6.4 6.4 6.6 6.7 6.7 6.6 6.8 7.0 7.0 7.0 7.2 7.3 7.3 7.2 7.2 6.9 6.6 6.6 6.6 6.5 6.3
5.2 4.9 4.9 4.8 4.9 5.0 5.2 5.2 5.1 5.0 5.3 5.6 5.7 5.6 5.5 5.6 5.8 5.8 5.8 6.0 6.1 6.2 6.3 6.4 6.7 6.9 6.7 6.7 6.8 7.0 7.0 7.0 7.2 7.2 7.2 7.2 7.2 7.0 6.8 6.6 6.5 6.4 6.3
5.3 5.0 4.7 4.9 5.0 5.2 5.4 5.3 5.3 4.6 4.8 5.4 5.7 5.5 5.7 5.6 5.8 5.8 5.8 6.0 6.1 6.2 6.2 6.5 6.7 6.9 6.8 6.7 6.7 6.9 7.0 7.0 7.1 7.1 7.1 7.1 7.1 7.0 6.9 6.5 6.5 6.3 6.3
5.5 5.1 4.8 4.5 4.6 5.1 5.0 5.5 5.7 5.2 4.8 5.0 5.6 5.6 6.0 6.1 5.9 5.8 5.9 5.9 6.1 6.1 6.1 6.3 6.6 6.8 6.8 6.6 6.8 6.9 6.9 6.9 7.1 6.9 7.0 7.0 6.9 6.9 6.9 6.6 6.5 6.4 6.3
5.5 5.3 4.8 4.6 4.5 5.0 5.2 5.0 4.8 5.2 5.4 5.2 5.6 5.8 6.1 6.3 6.0 5.9 5.7 5.8 6.0 6.1 6.2 6.4 6.6 6.7 6.8 6.7 6.8 6.9 6.9 6.9 7.0 6.9 6.8 6.8 6.8 6.9 6.8 6.6 6.5 6.4 6.3
5.2 5.3 5.1 4.6 4.7 4.3 4.7 5.2 5.5 5.2 5.6 5.3 5.5 6.0 6.1 6.2 6.2 6.1 5.6 5.9 6.0 6.1 6.2 6.3 6.5 6.5 6.7 6.8 6.7 6.8 6.9 6.9 6.9 6.8 6.7 6.7 6.7 6.8 6.6 6.4 6.5 6.4 6.3
4.9 4.9 4.8 4.9 4.4 4.1 4.3 5.0 5.0 4.7 4.6 5.5 5.4 6.0 5.9 6.1 6.2 6.2 5.7 5.8 5.9 6.0 6.0 6.3 6.4 6.4 6.5 6.7 6.7 6.7 6.8 6.8 6.8 6.7 6.6 6.6 6.6 6.6 6.5 6.4 6.4 6.4 6.2
4.9 4.8 4.5 4.7 5.8 6.2 6.4 5.9 5.3 4.7 4.9 5.3 5.3 5.6 5.6 6.0 6.2 6.2 5.9 5.7 5.8 5.9 6.1 6.4 6.4 6.3 6.4 6.4 6.6 6.7 6.7 6.7 6.7 6.5 6.5 6.3 6.4 6.4 6.3 6.3 6.4 6.4 6.3
4.8 4.8 4.6 6.1 6.7 6.9 6.8 6.6 6.4 5.5 4.9 5.0 5.5 5.7 5.1 5.8 6.2 6.1 6.1 5.7 5.7 5.8 6.1 6.4 6.4 6.1 6.3 6.5 6.5 6.5 6.6 6.6 6.7 6.4 6.2 6.1 6.1 6.1 6.2 6.2 6.3 6.3 6.2
5.1 4.5 5.7 6.8 7.3 7.1 7.0 7.1 7.0 6.1 6.0 4.1 5.7 5.8 5.1 5.6 6.1 6.1 6.1 5.7 5.8 5.8 6.1 6.3 6.3 6.1 6.2 6.3 6.5 6.5 6.5 6.5 6.6 6.4 6.2 6.1 6.1 6.1 6.1 6.2 6.2 6.2 6.2
4.7 4.9 6.0 6.8 6.4 6.3 6.3 6.3 7.7 8.0 6.5 5.1 5.7 5.7 5.3 5.6 6.1 6.1 6.2 6.0 5.9 5.9 6.1 6.3 6.3 6.1 6.4 6.5 6.6 6.4 6.4 6.4 6.5 6.4 6.2 6.0 6.2 6.2 6.1 6.2 6.2 6.2 6.2
4.7 5.5 5.8 6.3 5.8 5.5 5.7 5.9 6.8 7.5 5.8 5.4 5.6 5.8 5.6 5.6 6.2 6.1 6.3 6.1 6.0 6.0 6.0 6.2 6.4 6.5 6.4 6.3 6.5 6.3 6.2 6.3 6.4 6.3 6.2 5.9 6.0 6.1 6.1 6.1 6.1 6.1 6.1
5.2 5.8 5.4 5.8 4.9 4.5 5.1 5.0 5.4 5.3 5.3 5.3 5.4 5.8 5.3 5.6 6.2 6.1 6.2 6.2 6.0 6.0 6.2 6.4 6.4 6.5 6.3 6.3 6.3 6.3 6.1 6.3 6.1 6.2 6.2 6.1 5.9 6.0 6.0 6.0 6.1 6.1 6.1
5.6 5.8 5.8 5.9 4.8 4.8 4.8 4.7 4.8 4.6 4.5 4.9 5.7 6.0 5.4 5.7 6.2 6.2 6.3 6.3 6.2 6.1 6.3 6.2 6.3 6.3 6.2 6.1 6.0 6.2 6.0 6.0 6.0 5.9 5.9 5.8 5.8 5.8 5.9 5.9 5.9 5.9 6.1
5.8 5.8 5.7 5.8 4.9 4.4 4.4 4.7 4.4 4.9 5.4 5.2 5.6 5.9 5.6 6.0 6.4 6.2 6.2 6.3 6.2 6.3 6.2 6.2 6.2 6.2 6.2 6.0 6.0 5.9 5.7 5.8 5.7 5.6 5.6 5.6 5.5 5.6 5.8 5.8 5.8 5.8 6.0
5.7 5.9 5.9 5.5 5.1 4.6 4.5 4.5 5.2 5.6 5.3 5.1 5.6 5.7 5.5 6.0 6.3 6.3 6.2 6.3 6.3 6.2 6.2 6.3 6.2 6.0 5.9 5.9 5.8 5.9 5.6 5.6 5.5 5.4 5.4 5.6 5.4 5.5 5.5 5.8 5.8 5.8 5.8
Wind_Speed
5 12 20 21 23 23 23 22 20 18 19 19 20 20 20 20 22 21 19 19 17 16 15 14 14 15 17 18 18 19 19 18 15 15 14 15 18 16 17 18 19 19 21
13 16 20 20 20 22 23 21 20 19 18 18 19 21 20 19 19 18 17 16 16 15 14 14 15 16 17 18 19 20 19 18 18 18 16 19 19 19 20 19 19 19 20
14 19 20 21 20 21 21 22 19 20 19 18 19 20 19 18 17 17 17 16 15 15 15 15 15 17 17 19 20 18 15 12 12 11 12 15 20 20 20 23 20 19 18
16 20 18 21 20 21 21 21 22 20 21 19 19 17 18 16 16 16 16 15 15 14 15 15 16 17 18 18 18 15 9 5 7 12 15 13 14 17 20 20 21 22 21
14 19 19 22 21 21 21 22 21 20 19 22 18 16 15 15 15 15 15 16 15 15 16 17 17 16 17 17 16 14 13 20 18 17 18 15 16 20 21 23 21 20 19
11 18 20 23 22 24 24 22 20 19 20 20 20 17 14 15 14 14 14 16 16 17 17 17 17 16 16 16 16 17 22 21 19 19 17 14 13 22 24 25 25 23 24
8 12 20 25 21 21 23 23 20 20 21 21 21 19 17 15 14 14 15 16 17 18 19 18 17 16 16 15 15 18 20 18 21 14 10 11 23 24 23 24 20 20 18
9 11 20 25 24 24 24 23 21 20 21 21 20 20 18 16 15 14 14 16 17 19 19 19 17 18 16 13 16 24 18 19 16 13 13 19 22 21 21 20 20 19 18
7 6 15 18 22 24 26 25 23 22 22 22 20 18 19 16 14 15 15 16 17 18 18 19 20 18 16 15 22 20 21 22 15 12 17 17 19 20 19 18 19 20 19
7 6 7 16 18 18 21 26 25 24 22 21 20 19 18 20 15 15 16 16 17 17 18 18 20 18 15 16 18 21 23 22 14 16 18 19 19 20 19 19 19 19 20
4 4 5 3 2 6 11 21 25 25 24 23 21 21 20 17 18 16 14 17 17 17 18 19 19 16 13 16 22 22 20 15 16 17 16 19 18 19 19 18 18 18 20
5 4 6 6 7 8 2 13 18 22 20 17 18 21 19 16 16 14 15 16 17 17 17 19 17 15 16 17 19 19 14 16 16 16 17 18 19 19 18 20 17 19 18
5 5 8 8 9 9 5 3 14 15 14 15 20 21 21 16 15 15 13 13 15 16 14 15 14 14 17 15 13 13 15 16 16 15 18 20 19 19 19 17 17 20 17
7 8 10 11 9 8 5 9 11 2 14 13 17 21 17 12 11 10 9 10 12 13 9 12 11 12 15 16 16 13 16 16 16 16 18 18 19 18 19 16 18 18 18
8 7 9 9 10 9 7 5 6 6 6 16 16 18 19 14 8 12 10 11 13 13 11 9 11 10 11 15 14 14 15 15 17 15 18 20 16 17 18 16 15 17 16
10 10 9 11 8 9 7 9 7 6 10 12 17 17 19 18 16 13 11 9 11 14 13 11 9 9 7 13 10 14 16 15 16 19 20 19 17 14 15 14 16 15 14
10 12 12 11 9 11 9 8 6 13 7 8 11 18 20 19 19 17 11 7 12 15 14 10 9 11 7 10 6 13 15 16 14 17 19 18 18 13 13 13 13 12 14
9 13 11 10 11 10 8 7 8 11 9 2 8 12 21 21 21 18 9 8 13 13 11 7 6 6 6 6 7 7 10 12 13 13 14 17 20 14 13 11 12 12 10
14 13 13 10 10 11 9 8 9 12 9 10 10 13 19 21 22 19 13 12 14 9 7 7 4 8 6 5 7 5 5 6 10 11 12 17 17 15 15 13 12 11 8
13 13 12 9 9 9 7 8 9 11 13 14 9 13 19 19 23 19 15 12 14 5 5 5 8 4 6 6 7 5 4 4 9 9 9 13 15 15 14 13 11 9 8
11 13 10 11 8 7 8 8 11 13 12 7 7 18 19 20 21 17 12 12 13 9 8 9 7 11 3 5 5 5 4 3 4 4 9 10 10 12 13 12 10 9 7
16 14 14 14 10 10 9 9 7 9 11 12 10 14 21 20 20 17 12 11 9 8 8 10 9 5 3 3 4 4 3 3 2 1 3 5 8 12 11 12 11 10 8
14 16 16 10 10 9 7 11 8 6 7 7 9 8 9 19 20 19 17 11 10 10 10 10 10 8 10 1 11 4 3 4 3 1 3 3 5 5 10 13 12 11 10
13 12 12 9 9 9 4 8 19 12 13 12 13 12 10 18 17 17 16 15 10 8 11 9 9 7 9 8 3 2 1 5 3 2 1 2 4 5 5 10 13 13 11
8 11 10 8 10 11 6 6 10 15 13 12 11 12 11 10 15 16 17 14 11 8 10 12 10 10 9 9 9 3 2 2 3 3 3 2 1 2 5 9 13 16 14
11 12 9 10 10 10 11 5 9 9 8 8 8 10 9 8 8 9 14 13 12 10 10 10 11 11 11 7 4 4 4 3 3 3 2 2 3 3 3 6 9 14 16
Wind_Direction
190 174 167 166 158 154 147 149 149 145 145 143 138 134 130 127 126 126 128 124 122 121 121 115 113 113 111 110 109 98 91 90 93 95 94 97 89 86 85 79 73 70 70
154 168 166 166 164 161 155 152 152 148 152 145 145 140 138 136 135 134 130 128 127 126 124 120 118 119 117 116 110 104 99 95 92 97 97 99 97 93 89 85 78 76 72
153 161 163 165 164 160 159 154 153 157 157 157 155 148 145 143 141 138 136 133 132 131 128 127 124 123 121 119 117 113 112 104 89 70 83 95 89 89 87 78 78 80 78
153 160 162 164 165 164 157 159 154 167 158 160 147 147 145 147 150 144 139 137 135 133 131 130 126 127 124 122 115 112 109 127 85 87 80 73 94 92 84 89 83 82 86
156 159 164 164 169 168 163 160 162 168 166 152 146 148 150 151 153 148 144 141 139 138 137 134 129 127 126 124 118 105 112 113 107 96 94 98 96 99 99 93 98 95 92
158 162 162 169 178 180 166 164 171 169 164 149 144 151 157 160 154 151 149 144 143 142 139 134 132 132 131 128 113 105 107 109 112 115 123 132 119 105 91 88 81 76 72
156 173 168 173 181 179 169 162 171 171 163 151 151 159 160 160 158 154 152 151 148 145 141 137 137 137 134 124 109 114 117 116 115 114 101 99 94 88 84 79 82 76 79
170 175 180 179 181 178 172 168 171 172 162 156 159 161 159 161 157 159 157 156 149 145 142 140 140 138 130 109 109 125 121 115 109 100 99 92 94 93 92 91 87 92 81
182 176 184 189 187 178 177 170 171 174 165 159 161 163 156 153 158 161 163 159 154 147 143 143 141 138 126 112 125 122 121 115 100 102 92 84 98 98 95 96 89 89 82
155 173 198 187 195 188 178 169 168 171 164 159 160 157 152 145 157 166 169 160 155 147 145 146 144 138 122 118 125 125 116 111 106 98 92 102 101 101 99 94 91 87 89
106 178 222 138 126 211 192 173 165 164 160 158 155 151 145 147 157 173 166 166 158 150 152 150 147 132 120 121 127 119 112 113 104 98 99 103 105 102 99 100 95 91 89
169 163 136 122 101 82 250 178 165 161 161 158 148 144 144 154 158 163 170 168 156 156 155 152 141 129 115 113 121 117 117 116 107 102 108 111 109 105 100 98 107 97 86
187 154 151 132 117 107 102 354 164 160 159 152 151 150 148 153 154 155 160 162 155 162 157 148 142 126 117 116 120 122 120 113 112 112 118 113 113 106 104 107 101 93 93
184 181 168 149 133 122 105 98 32 318 165 158 165 154 151 149 146 146 146 144 151 168 163 150 134 125 117 119 123 117 118 117 111 117 119 115 110 108 112 101 100 94 93
184 179 185 163 153 148 141 143 133 7 208 166 165 164 160 157 159 148 150 156 162 175 173 153 137 125 113 114 120 120 118 118 113 113 111 109 102 110 113 106 102 99 97
200 188 173 190 167 157 165 162 143 111 8 195 171 172 166 166 158 156 159 165 169 181 177 158 148 139 123 124 120 128 123 120 115 115 111 104 95 94 109 106 108 106 99
199 189 179 186 171 173 173 162 160 142 142 307 187 170 171 170 164 157 162 168 179 182 174 166 144 127 119 125 124 128 125 125 117 116 122 115 107 91 98 110 102 102 111
178 177 175 186 188 181 178 170 171 151 150 250 246 189 177 173 170 161 161 179 181 180 160 156 152 138 132 131 123 128 131 129 116 112 122 119 123 111 97 109 111 116 100
180 174 182 184 184 187 192 190 192 169 142 190 182 203 190 176 172 168 164 178 173 171 155 157 145 144 138 122 121 124 124 124 121 123 121 123 125 123 115 106 105 93 105
172 177 176 184 197 184 188 188 189 182 155 176 161 212 193 181 176 168 163 170 169 159 154 143 143 132 141 137 117 87 70 92 113 134 135 129 136 135 130 125 118 102 79
167 173 170 186 177 170 191 191 195 199 176 159 177 204 190 181 177 172 165 163 169 171 167 152 146 142 109 129 113 84 61 41 84 115 143 141 147 151 146 141 140 132 110
173 174 188 197 174 187 197 212 194 191 167 159 168 195 184 171 172 175 166 167 170 157 155 162 154 137 114 179 123 94 106 350 18 114 156 158 167 163 160 161 158 146 140
175 183 198 190 172 179 190 206 211 169 132 154 174 178 175 166 170 171 166 161 168 169 172 170 162 158 163 220 162 134 142 199 136 323 203 198 169 180 181 173 177 167 157
193 186 193 183 146 150 165 167 174 165 159 173 181 179 172 170 168 163 161 159 167 171 174 175 169 166 163 166 148 98 122 146 161 156 284 227 199 178 197 193 190 188 175
188 189 189 151 144 154 167 156 152 157 160 169 177 164 172 170 166 167 165 163 167 173 174 176 171 166 175 173 184 151 116 70 97 133 179 210 329 213 204 189 187 186 190
187 190 175 153 151 152 161 174 153 140 124 131 159 163 173 171 167 171 172 175 174 176 176 178 180 175 179 181 170 156 164 159 175 146 133 149 178 219 203 210 189 187 184